[[{"header":{"parameterUnit":"m.s-1","parameterCategory":1,"la1":30.2991,"la2":30.254,"lo1":-89.0895,"lo2":-89.0444,"dy":0.0017,"dx":0.0017,"nx":28,"ny":28,"refTime":"2024-02-26T09:00:00:Z","depth":0,"parameterNumber":2,"parameterNumberName":"U-component_of_WINDS"},"data":[0,0,0,0,0,0,0,0,0,0,0,0,0,0,0,0,0,0,0,0,0,0,0,0,0,0,0,0,0,0,0,0,0,0,0,0,0,0,0,0,0,0,0,0,0,0,0,0,0,0,0,0,0,0,0,0,0,0,0.9098,0.9099,0,0.9152,0.9153,0.9153,0.9138,0.9137,0.9136,0.9135,0.9192,0.9195,0.9197,0,0,0,0,0,0,0,0,0,0,0,0,0,0.8985,0.8987,0.9098,0.9099,0.9099,0.9152,0.9153,0.9153,0.9138,0.9137,0.9136,0.9135,0.9192,0.9195,0.9198,0,0,0,0,0,0,0,0,0,0,0,0,0,0.9036,0.8988,0.9098,0.9098,0.9099,0.9152,0.9153,0.9153,0.9139,0.9137,0.9135,0.9134,0.9191,0.9194,0.9198,0.9254,0,0,0.921,0.9211,0,0,0,0,0,0,0,0,0.9033,0.904,0.9097,0.9098,0.9099,0.9137,0.9134,0.9187,0.9139,0.9124,0.9135,0.9133,0.9175,0.918,0.9194,0.9257,0.926,0.921,0.9212,0.9214,0.9215,0,0,0,0,0,0,0,0.903,0.9038,0.9119,0.9098,0.9099,0.9097,0.9102,0.9144,0.9158,0.9125,0.9124,0.913,0.9175,0.919,0.9195,0.926,0.921,0.9213,0.9216,0.9217,0.9374,0.9376,0,0,0,0,0,0,0.9025,0.9035,0.9118,0.9121,0.9061,0.91,0.9106,0.9126,0.9158,0.9161,0.9132,0.9129,0.9185,0.9191,0.9197,0.9267,0.9214,0.9218,0.922,0.9372,0.9375,0.9377,0,0,0,0,0,0,0.9023,0.9033,0.9115,0.9078,0.9088,0.9104,0.9126,0.9128,0.9143,0.9163,0.9165,0.9144,0.9184,0.9192,0.9241,0.9268,0.9219,0.9223,0.937,0.9373,0.9376,0.9405,0,0,0,0,0,0,0.902,0.9032,0.9053,0.9078,0.909,0.9157,0.9128,0.913,0.915,0.9147,0.9175,0.9178,0.9183,0.9235,0.9244,0.9273,0.9226,0.9368,0.9371,0.9375,0.9402,0.9408,0.9414,0,0,0,0,0,0.9016,0.9059,0.9054,0.9064,0.9116,0.9159,0.9166,0.9169,0.9152,0.9174,0.9186,0.9177,0.9263,0.924,0.9251,0.928,0.9366,0.937,0.9374,0.9399,0.9407,0.9414,0,0,0,0,0,0,0.9037,0.9062,0.9057,0.911,0.9132,0.9156,0.9184,0.9178,0.9206,0.9203,0.9207,0.9214,0.9264,0.9277,0.925,0.9337,0.9312,0.9319,0.9327,0.9335,0.9341,0.9338,0.9229,0,0,0,0,0,0.9047,0.9079,0.91,0.9144,0.9156,0.9168,0.9186,0.9187,0.9211,0.9221,0.9237,0.9261,0.9294,0.9315,0.9346,0.9403,0.941,0.9429,0.9435,0.944,0.9446,0.9479,0.9488,0.9391,0.9391,0.939,0,0,0.907,0.9088,0.9108,0.9149,0.9167,0.92,0.9176,0.9212,0.9237,0.9226,0.9274,0.9286,0.9314,0.9367,0.9392,0.938,0.9475,0.9446,0.945,0.9453,0.9484,0.9494,0.9502,0.9393,0.9393,0.9392,0,0,0.9129,0.9145,0.9184,0.9202,0.9229,0.9237,0.9247,0.9272,0.928,0.9327,0.932,0.935,0.9406,0.9426,0.9443,0.9511,0.9504,0.9521,0.9554,0.9586,0.9594,0.9601,0.9626,0.9635,0.9526,0.9526,0.9527,0,0.9154,0.9203,0.9206,0.9243,0.9262,0.9253,0.9294,0.9312,0.9347,0.9361,0.9347,0.9418,0.9435,0.9494,0.951,0.9524,0.9536,0.9518,0.9592,0.9599,0.9606,0.963,0.9639,0.9528,0.9528,0.9528,0.9528,0,0.9233,0.9268,0.9297,0.9331,0.9354,0.9392,0.9402,0.9424,0.9424,0.9433,0.9482,0.9503,0.9539,0.9553,0.9552,0.9612,0.9604,0.9591,0.9566,0.9617,0.964,0.9649,0.9531,0.953,0.953,0.9529,0,0,0.9306,0.9342,0.9353,0.9369,0.9399,0.9426,0.9465,0.9499,0.9519,0.9544,0.9578,0.9626,0.9614,0.9634,0.9636,0.9664,0.9718,0.9648,0.9649,0.9661,0.9787,0.9797,0.9807,0.9713,0.9715,0.9716,0.9785,0,0.9368,0.9436,0.944,0.9503,0.9536,0.9528,0.9562,0.9585,0.9595,0.9625,0.9637,0.9671,0.9653,0.9665,0.9692,0.9706,0.9743,0.9701,0.9746,0.9748,0.974,0.9819,0.983,0.9893,0.9793,0.9795,0.9796,0,0.945,0.9477,0.9543,0.9569,0.9583,0.9613,0.9646,0.9674,0.97,0.9706,0.9728,0.9727,0.9768,0.9741,0.9799,0.977,0.9789,0.9798,0.9801,0.9806,0.9776,0.9828,0.9913,0.9923,0.981,0.9809,0.9808,0,0.9498,0.9552,0.9598,0.9612,0.9643,0.9665,0.9679,0.9703,0.9724,0.9753,0.9767,0.98,0.9819,0.9845,0.9853,0.9832,0.9911,0.9884,0.9918,0.9918,0.9935,0.9934,1.0026,0.9946,0.9945,0.9945,0.9945,0,0.9567,0.9608,0.9621,0.9649,0.9695,0.97,0.9745,0.9758,0.978,0.9812,0.9807,0.9837,0.9845,0.9877,0.9884,0.9931,0.994,0.9946,0.9948,0.9947,0.9947,0.996,0.9957,0.9948,0.9947,0.9947,0.9946,0,0.9629,0.9639,0.9689,0.9715,0.9722,0.9755,0.9778,0.9806,0.9816,0.9856,0.9866,0.9882,0.992,0.993,0.9975,0.9979,1.0036,1.0032,1.0027,1.0027,1.0061,1.0058,1.0166,1.0181,1.0089,1.009,1.0091,0,0.9673,0.9704,0.9733,0.9754,0.9769,0.9803,0.9825,0.9831,0.9853,0.9886,0.991,0.9947,0.9977,1.0038,1.0054,1.0089,1.0087,1.0122,1.0092,1.0091,1.0089,1.0087,1.0091,1.0128,1.0129,1.013,1.0131,0,0.975,0.9754,0.9785,0.9818,0.9844,0.987,0.9895,0.9913,0.9923,0.9949,0.9987,1.001,1.0057,1.0094,1.0129,1.0145,1.014,1.014,1.015,1.015,1.0146,1.015,1.0044,1.0138,1.0137,1.0137,1.0136,1.0136,0.9805,0.9833,0.9858,0.9893,0.9913,0.9937,0.9966,0.9979,1.0011,1.0049,1.0051,1.0093,1.0119,1.0166,1.0184,1.0217,1.0207,1.0221,1.0225,1.0228,1.0232,1.014,1.0224,1.0223,1.0223,1.0223,1.0223,0,0.9883,0.9899,0.9931,0.9967,0.9995,0.9988,1.0016,1.004,1.0077,1.0102,1.0132,1.0176,1.0213,1.0232,1.0268,1.0292,1.0291,1.0301,1.03,1.0304,1.0238,1.0227,1.0302,1.0302,1.0302,1.0302,1.0302,1.0302,0.9927,0.9974,0.9981,1.0039,1.0055,1.0096,1.0113,1.0136,1.0156,1.0206,1.0236,1.0248,1.0271,1.031,1.0343,1.0348,1.0362,1.0374,1.0378,1.0316,1.0308,1.0301,1.029,1.0377,1.0377,1.0441,1.0442,1.0442]},{"header":{"parameterUnit":"m.s-1","parameterCategory":1,"la1":30.2991,"la2":30.254,"lo1":-89.0895,"lo2":-89.0444,"dy":0.0017,"dx":0.0017,"nx":28,"ny":28,"refTime":"2024-02-26T09:00:00:Z","depth":0,"parameterNumber":3,"parameterNumberName":"V-component_of_WINDS"},"data":[0,0,0,0,0,0,0,0,0,0,0,0,0,0,0,0,0,0,0,0,0,0,0,0,0,0,0,0,0,0,0,0,0,0,0,0,0,0,0,0,0,0,0,0,0,0,0,0,0,0,0,0,0,0,0,0,0,0,5.0816,5.0818,0,5.1002,5.1004,5.1006,5.1038,5.1036,5.1035,5.1033,5.1224,5.123,5.1236,0,0,0,0,0,0,0,0,0,0,0,0,0,5.0489,5.0495,5.0816,5.0818,5.082,5.1001,5.1004,5.1006,5.1038,5.1036,5.1034,5.1032,5.1221,5.1229,5.1237,0,0,0,0,0,0,0,0,0,0,0,0,0,5.0648,5.0497,5.0815,5.0858,5.0863,5.1001,5.1004,5.1007,5.1038,5.1036,5.1034,5.1031,5.1219,5.1228,5.1238,5.1346,0,0,5.1268,5.1272,0,0,0,0,0,0,0,0,5.0639,5.066,5.0849,5.0855,5.0862,5.0994,5.0959,5.1121,5.1039,5.0972,5.1033,5.103,5.1149,5.1164,5.1205,5.1355,5.1363,5.1269,5.1275,5.1279,5.1282,0,0,0,0,0,0,0,5.0628,5.0653,5.0889,5.0852,5.086,5.0868,5.0888,5.0989,5.1072,5.0978,5.098,5.1002,5.1152,5.1195,5.1209,5.1366,5.1269,5.1277,5.1283,5.1287,5.1617,5.162,0,0,0,0,0,0,5.0609,5.0643,5.0883,5.0895,5.0742,5.0876,5.0898,5.0954,5.1071,5.1086,5.1004,5.1003,5.1179,5.1198,5.1216,5.1353,5.1279,5.1288,5.1294,5.1614,5.1617,5.1621,0,0,0,0,0,0,5.0602,5.0631,5.0876,5.077,5.0802,5.0884,5.0946,5.0959,5.1002,5.109,5.1105,5.1033,5.1178,5.1202,5.1314,5.136,5.1293,5.1302,5.1611,5.1615,5.1619,5.1625,0,0,0,0,0,0,5.0593,5.0628,5.0669,5.0771,5.0807,5.097,5.0949,5.0964,5.1019,5.1019,5.1121,5.1136,5.1178,5.1299,5.1324,5.1372,5.1309,5.1607,5.1613,5.1618,5.1621,5.1629,5.1636,0,0,0,0,0,5.0581,5.0663,5.0671,5.07,5.0861,5.0973,5.0994,5.1041,5.1022,5.1065,5.1122,5.1133,5.135,5.131,5.1338,5.139,5.1604,5.1611,5.1617,5.1618,5.1627,5.1635,0,0,0,0,0,0,5.0565,5.0677,5.0687,5.0804,5.0879,5.0978,5.1034,5.1049,5.1131,5.1128,5.1182,5.1205,5.1315,5.1363,5.1317,5.1502,5.1476,5.1488,5.1467,5.1477,5.1484,5.1471,5.1317,0,0,0,0,0,5.0575,5.0656,5.075,5.0844,5.0881,5.0951,5.1001,5.1031,5.1111,5.1142,5.1207,5.1284,5.137,5.1425,5.1509,5.1627,5.1652,5.1677,5.1684,5.1689,5.17,5.1769,5.1783,5.1642,5.1642,5.1642,0,0,5.0596,5.0668,5.0716,5.0843,5.0904,5.0988,5.0977,5.1066,5.1129,5.1156,5.1266,5.1316,5.1406,5.1522,5.1576,5.1566,5.1744,5.1698,5.1701,5.171,5.1777,5.1791,5.1803,5.1646,5.1645,5.1645,0,0,5.0679,5.074,5.0827,5.0889,5.0982,5.1028,5.1049,5.1146,5.1181,5.1292,5.1315,5.1391,5.1537,5.16,5.1652,5.176,5.1774,5.1785,5.1825,5.1891,5.1902,5.1912,5.1954,5.1968,5.1795,5.1795,5.1795,0,5.0695,5.0822,5.0869,5.0959,5.1015,5.1042,5.1132,5.1189,5.1305,5.1343,5.1329,5.1515,5.1577,5.171,5.1736,5.1776,5.1803,5.1775,5.1897,5.1907,5.1918,5.1958,5.1973,5.1796,5.1796,5.1796,5.1796,0,5.0838,5.0926,5.0984,5.1097,5.1159,5.1247,5.1309,5.1366,5.1391,5.1438,5.1553,5.1628,5.1729,5.1762,5.1786,5.1899,5.189,5.1885,5.1861,5.1931,5.197,5.1986,5.1798,5.1798,5.1797,5.1797,0,0,5.0917,5.1055,5.1076,5.1128,5.1233,5.1302,5.1392,5.1491,5.1541,5.1619,5.1697,5.1821,5.1818,5.1876,5.1908,5.1966,5.2051,5.1955,5.1958,5.1973,5.2183,5.2188,5.2205,5.2059,5.2062,5.2065,5.2177,0,5.1015,5.1177,5.1223,5.136,5.1443,5.1471,5.155,5.1623,5.167,5.1748,5.18,5.1888,5.1876,5.1912,5.197,5.2028,5.2094,5.202,5.2135,5.2138,5.2115,5.2225,5.223,5.2332,5.2192,5.2194,5.2196,0,5.1151,5.1234,5.1379,5.1476,5.1512,5.1582,5.1678,5.1751,5.1835,5.1866,5.1931,5.1958,5.2054,5.2022,5.2157,5.2105,5.2155,5.219,5.2195,5.221,5.2174,5.2246,5.2366,5.2382,5.222,5.2218,5.2217,0,5.1198,5.1345,5.1452,5.1496,5.161,5.1659,5.1709,5.1791,5.1848,5.1931,5.1969,5.2061,5.2113,5.2185,5.2236,5.2208,5.2367,5.2339,5.2397,5.2396,5.2432,5.2429,5.2564,5.2458,5.2458,5.2457,5.2457,0,5.1305,5.1393,5.1476,5.1542,5.1643,5.1694,5.1793,5.1844,5.1916,5.1994,5.2022,5.2094,5.2156,5.2237,5.2277,5.2384,5.2406,5.2435,5.2445,5.2434,5.2431,5.247,5.2465,5.2461,5.2461,5.246,5.2459,0,5.1375,5.1433,5.1553,5.1651,5.1678,5.1749,5.1834,5.1899,5.1947,5.2045,5.207,5.2146,5.2242,5.23,5.2421,5.2449,5.2568,5.2574,5.254,5.2545,5.2601,5.2597,5.2769,5.2795,5.2668,5.2669,5.267,0,5.1441,5.151,5.1617,5.1671,5.1722,5.1808,5.1867,5.192,5.1981,5.2083,5.2137,5.2235,5.2317,5.247,5.2536,5.2629,5.264,5.2693,5.2654,5.2642,5.2644,5.2641,5.265,5.2701,5.2702,5.2703,5.2704,0,5.1553,5.1578,5.1662,5.1757,5.1827,5.1903,5.198,5.2022,5.2089,5.2155,5.2255,5.2318,5.2443,5.2541,5.2641,5.2693,5.2711,5.2715,5.2734,5.2725,5.2705,5.272,5.2562,5.2712,5.2711,5.271,5.271,5.2709,5.1625,5.1689,5.1775,5.1868,5.1931,5.2003,5.207,5.2127,5.2211,5.2317,5.2343,5.2448,5.2532,5.2668,5.2722,5.2805,5.2797,5.2823,5.2831,5.2838,5.2841,5.2688,5.2823,5.2823,5.2823,5.2823,5.2823,0,5.1741,5.1798,5.1883,5.199,5.2063,5.2072,5.2158,5.2219,5.2312,5.2388,5.2469,5.2584,5.2679,5.2753,5.2851,5.2904,5.2915,5.2928,5.2927,5.2939,5.2841,5.2817,5.2918,5.2918,5.2918,5.2918,5.2918,5.2918,5.1811,5.192,5.1956,5.2098,5.2154,5.2258,5.2306,5.2373,5.2435,5.2562,5.2642,5.2689,5.2765,5.287,5.2958,5.2977,5.3014,5.3026,5.3047,5.2955,5.2945,5.2936,5.2913,5.3033,5.3033,5.3139,5.314,5.314]}]]